This is the latest recevied weather packets stored in our database for station/object HB9EYZ-1. If no packets are shown the sender has not sent any weather packets the latest 1 day(s).
| Time | Temp. | Humidity | Pressure | Rain* | Wind** | Luminosity | Snow |
|---|---|---|---|---|---|---|---|
| 1778004339 | 15.56° C | 37% | 1004.5 hPa | 1.02 mm | 0 m/s | - | - |
| 1778004022 | 15.56° C | 36% | 1004.4 hPa | 1.02 mm | 0 m/s | - | - |
| 1778003088 | 15.56° C | 37% | 1004.3 hPa | 1.02 mm | 0 m/s | - | - |
| 1778002771 | 15.56° C | 36% | 1004.4 hPa | 1.02 mm | 0 m/s | - | - |
| 1778002455 | 15.56° C | 37% | 1004.7 hPa | 1.02 mm | 0 m/s | - | - |
| 1778002138 | 15.56° C | 38% | 1004.5 hPa | 1.02 mm | 0 m/s | - | - |
| 1778001822 | 15.56° C | 36% | 1004.4 hPa | 1.02 mm | 0 m/s | - | - |
| 1778001505 | 15.56° C | 33% | 1004.3 hPa | 1.02 mm | 0 m/s | - | - |
| 1778001188 | 15.56° C | 34% | 1004 hPa | 1.02 mm | 0 m/s | - | - |
| 1778000871 | 15.56° C | 34% | 1004.1 hPa | 1.02 mm | 0 m/s | - | - |
| 1778000554 | 15.56° C | 32% | 1004.1 hPa | 1.02 mm | 0 m/s | - | - |
| 1778000235 | 16.11° C | 32% | 1004 hPa | 1.02 mm | 0 m/s | - | - |
| 1777999917 | 16.11° C | 32% | 1003.8 hPa | 1.02 mm | 0 m/s | - | - |
| 1777999598 | 16.11° C | 31% | 1004 hPa | 1.02 mm | 0 m/s | - | - |
| 1777999282 | 16.67° C | 32% | 1004 hPa | 1.02 mm | 0 m/s | - | - |
| 1777998965 | 16.67° C | 33% | 1003.9 hPa | 1.02 mm | 0 m/s | - | - |
| 1777998648 | 16.67° C | 32% | 1004.1 hPa | 1.02 mm | 0 m/s | - | - |
| 1777998331 | 16.67° C | 28% | 1004.1 hPa | 1.02 mm | 0 m/s | - | - |
| 1777998015 | 16.67° C | 28% | 1004.1 hPa | 1.02 mm | 0 m/s | - | - |
| 1777997396 | 16.11° C | 31% | 1004.3 hPa | 1.02 mm | 0 m/s | - | - |
| 1777997079 | 16.11° C | 33% | 1004.4 hPa | 1.02 mm | 0 m/s | - | - |
| 1777996762 | 16.11° C | 34% | 1004.3 hPa | 1.02 mm | 0 m/s | - | - |
| 1777996446 | 15.56° C | 35% | 1004.2 hPa | 1.02 mm | 0 m/s | - | - |
| 1777996129 | 15.56° C | 36% | 1004.1 hPa | 1.02 mm | 0 m/s | - | - |
| 1777995812 | 15.56° C | 36% | 1004.3 hPa | 1.02 mm | 0 m/s | - | - |
* Rain latest hour (hover to see other rain measurements)
** Current wind speed in m/s (hover to see current wind gust speed)